Flag for China Weather past 2 weeks in Lanchow, Gansu, China

Now
46 °F

Clear.


Feels Like: 45 °F
Forecast: 47 / 76 °F
Wind: 3 mph from North

Location: Lanzhou / Zhongchuan

Current Time: Sep 19, 2014 at 4:27:35 AM

Latest Report: Sep 19, 2014 at 4:00 AM


Visibility: 10 mi

Pressure: 30.15 "Hg

Humidity: 87%

Dew point: 43 °F

Location of LanchowLocation

Historic Weather in Lanchow — Graph

°F

Lanchow temperature yesterday

Maximum temperature yesterday: 75 °F (at 4:00 PM)
Minimum temperature yesterday: 46 °F (at 6:00 AM)
Average temperature yesterday: 58 °F

Past Weeks' High & Low Weather Summary

 TemperatureHumidityPressure
High82 °F (Sep 4, 4:00 PM)100% (Sep 9, 6:00 AM)30.27 "Hg (Sep 9, 6:00 AM)
Low46 °F (Sep 14, 4:00 AM)23% (Sep 4, 2:00 PM)29.83 "Hg (Sep 5, 3:00 PM)
Average59 °F73%30.09 "Hg
* Reported Sep 4 3:00 AM — Sep 19 3:00 AM, Lanchow, Weather by CustomWeather, © 2014

Note: Actual official high and low records may vary slightly from our data, if they occured in-between our weather recording intervals... More about our weather records

Advertising

Lanchow weather history for previous 24 hours

 ConditionsComfort  
Time TempWeatherWind HumidityBarometerVisibility
3:00 AM
Sep 19
46 °FClear.3 mph93%30.18 "Hg10 mi
2:00 AM46 °FClear.3 mph93%30.18 "Hg10 mi
1:00 AM48 °FClear.6 mph94%30.21 "Hg10 mi
12:00 AM50 °FClear.6 mph88%30.21 "Hg10 mi
11:00 PM
Sep 18
50 °FClear.3 mph88%30.21 "Hg10 mi
10:00 PM52 °FClear.6 mph82%30.21 "Hg10 mi
9:00 PM54 °FPassing clouds.3 mph82%30.21 "HgN/A
8:00 PM57 °FSunny.3 mph72%30.18 "Hg10 mi
7:00 PM63 °FPassing clouds.6 mph56%30.18 "HgN/A
6:00 PM64 °FSprinkles. Passing clouds.10 mph49%30.18 "HgN/A
5:00 PM63 °FThunderstorms. Scattered clouds.26 mph52%30.15 "HgN/A
4:00 PM75 °FPassing clouds.1 mph44%30.12 "HgN/A
3:00 PM72 °FPassing clouds.8 mph50%30.12 "HgN/A
2:00 PM72 °FPassing clouds.10 mph47%30.15 "HgN/A
1:00 PM70 °FPassing clouds.8 mph50%30.18 "HgN/A
12:00 PM66 °FPassing clouds.6 mph56%30.21 "HgN/A
11:00 AM64 °FClear.6 mph68%30.24 "Hg5 mi
10:00 AM61 °FPassing clouds.3 mph68%30.24 "HgN/A
9:00 AM55 °FSunny.No wind77%30.24 "Hg10 mi
8:00 AM48 °FFog.1 mph94%30.24 "Hg3 mi
7:00 AM46 °FFog.1 mph93%30.24 "Hg3 mi
6:00 AM46 °FFog.1 mph100%30.24 "Hg3 mi
5:00 AM48 °FFog.6 mph94%30.21 "Hg3 mi
4:00 AM48 °FFog.3 mph100%30.24 "Hg3 mi
Weather by CustomWeather, © 2014

See weather overviewHow to use our weather pages